CW0762 Weather Reports


Display with metric or nautical units.
time (UTC)temp
F
wind
direction
speed
MPH
gust
MPH
rain 1hr
in
rain 24hr
in
rain mn
in
humidity
%
barometer
mb
20260505021613 75 52 2.0 6.0 0.00 0.00 0.00 68 1006.2
20260505014600 76 54 2.0 9.0 0.00 0.00 0.00 67 1006.2
20260505013101 76 46 3.0 7.0 0.00 0.00 0.00 66 1006.2
20260505011559 76 50 5.0 11.0 0.00 0.00 0.00 65 1006.1
20260505010058 77 33 2.0 9.0 0.00 0.00 0.00 64 1006.2
20260505004604 77 49 3.0 15.0 0.00 0.00 0.00 63 1006.1
20260505003058 78 50 4.0 10.0 0.00 0.00 0.00 63 1006.1
20260505001556 78 44 3.0 13.0 0.00 0.00 0.00 62 1006.3
20260505000057 79 54 3.0 12.0 0.00 0.00 0.00 61 1006.5
20260504234555 79 59 3.0 9.0 0.00 0.00 0.00 61 1006.4
20260504233100 79 61 3.0 11.0 0.00 0.00 0.00 60 1006.8
20260504231553 80 56 2.0 12.0 0.00 0.00 0.00 60 1006.5
20260504230051 81 62 4.0 11.0 0.00 0.00 0.00 58 1006.7
20260504224550 82 65 3.0 16.0 0.00 0.00 0.00 57 1006.9
20260504223054 82 94 2.0 8.0 0.00 0.00 0.00 58 1007.0
20260504221558 81 122 4.0 12.0 0.00 0.00 0.00 58 1007.0
20260504220108 81 58 2.0 9.0 0.00 0.00 0.00 57 1007.1
20260504214545 81 52 2.0 10.0 0.00 0.00 0.00 57 1007.3
20260504213046 82 63 2.0 13.0 0.00 0.00 0.00 56 1007.6
20260504211541 82 32 3.0 9.0 0.00 0.00 0.00 55 1007.9
20260504210040 82 37 3.0 9.0 0.00 0.00 0.00 55 1008.1
20260504204556 82 54 4.0 10.0 0.00 0.00 0.00 55 1008.5
20260504203037 82 124 3.0 10.0 0.00 0.00 0.00 54 1008.7
20260504201534 82 63 1.0 10.0 0.00 0.00 0.00 55 1009.0
20260504200034 82 69 4.0 13.0 0.00 0.00 0.00 53 1009.4
20260504194536 82 75 4.0 10.0 0.00 0.00 0.00 54 1009.8
20260504193028 81 136 3.0 14.0 0.00 0.00 0.00 54 1009.9
20260504191524 81 128 3.0 12.0 0.00 0.00 0.00 54 1010.2
20260504190025 81 48 3.0 10.0 0.00 0.00 0.00 54 1010.4
20260504184528 80 144 3.0 10.0 0.00 0.00 0.00 54 1010.6
20260504183018 80 139 4.0 16.0 0.00 0.00 0.00 54 1010.9
20260504181516 80 161 2.0 11.0 0.00 0.00 0.00 55 1011.0
20260504180014 79 72 3.0 13.0 0.00 0.00 0.00 54 1011.2
20260504174511 79 146 2.0 9.0 0.00 0.00 0.00 56 1011.3
20260504173010 78 45 3.0 11.0 0.00 0.00 0.00 55 1011.7
20260504171506 77 71 4.0 8.0 0.00 0.00 0.00 55 1011.8
20260504081513 65 103 1.0 8.0 0.00 0.00 0.00 62 1014.4
20260504044538 69 63 1.0 5.0 0.00 0.00 0.00 52 1016.5
20260504043042 69 49 0.0 2.0 0.00 0.00 0.00 52 1016.7
20260504041536 70 47 0.0 4.0 0.00 0.00 0.00 51 1016.7
20260504040037 70 120 0.0 4.0 0.00 0.00 0.00 51 1016.7
20260504034536 70 123 0.0 6.0 0.00 0.00 0.00 50 1016.6
20260504033036 71 62 1.0 5.0 0.00 0.00 0.00 49 1016.6
20260504031535 71 40 0.0 5.0 0.00 0.00 0.00 48 1016.6
20260504030035 72 55 0.0 4.0 0.00 0.00 0.00 46 1016.5
20260504024535 73 52 0.0 5.0 0.00 0.00 0.00 44 1016.5
20260504023037 73 57 1.0 5.0 0.00 0.00 0.00 42 1016.4